| time (UTC) | temp F | wind direction | speed knots | gust knots | rain 1hr in | rain 24hr in | rain mn in | humidity % | barometer mb |
| 20260510224516 | 66 | 175 | 0.9 | 2.6 | 0.00 | 0.04 | 0.01 | 80 | 1013.5 |
| 20260510224005 | 66 | 166 | 0.9 | 2.6 | 0.00 | 0.04 | 0.01 | 80 | 1013.5 |
| 20260510223504 | 66 | 138 | 0.0 | 2.6 | 0.00 | 0.04 | 0.01 | 79 | 1013.5 |
| 20260510223005 | 66 | 128 | 0.9 | 2.6 | 0.00 | 0.04 | 0.01 | 79 | 1013.6 |
| 20260510222510 | 66 | 147 | 0.0 | 1.7 | 0.00 | 0.04 | 0.01 | 79 | 1013.6 |
| 20260510222005 | 66 | 141 | 0.0 | 0.0 | 0.00 | 0.04 | 0.01 | 79 | 1013.4 |
| 20260510221513 | 66 | 139 | 0.0 | 0.9 | 0.00 | 0.04 | 0.01 | 79 | 1013.5 |
| 20260510221005 | 66 | 139 | 0.0 | 1.7 | 0.00 | 0.04 | 0.01 | 79 | 1013.6 |
| 20260510220505 | 66 | 138 | 0.0 | 1.7 | 0.00 | 0.04 | 0.01 | 79 | 1013.4 |
| 20260510220009 | 66 | 152 | 0.0 | 1.7 | 0.00 | 0.04 | 0.01 | 80 | 1013.4 |
| 20260510215505 | 66 | 146 | 0.0 | 0.0 | 0.00 | 0.07 | 0.01 | 80 | 1013.4 |
| 20260510215003 | 65 | 147 | 0.0 | 0.0 | 0.00 | 0.07 | 0.01 | 79 | 1013.4 |
| 20260510214503 | 65 | 138 | 0.0 | 0.0 | 0.00 | 0.07 | 0.01 | 79 | 1013.3 |
| 20260510214003 | 65 | 74 | 0.0 | 0.0 | 0.00 | 0.07 | 0.01 | 80 | 1013.2 |
| 20260510213505 | 65 | 74 | 0.0 | 2.6 | 0.00 | 0.07 | 0.01 | 80 | 1013.2 |
| 20260510213003 | 65 | 359 | 0.0 | 2.6 | 0.00 | 0.07 | 0.01 | 80 | 1013.1 |
| 20260510212502 | 65 | 111 | 0.0 | 2.6 | 0.00 | 0.07 | 0.01 | 80 | 1013.0 |
| 20260510212004 | 65 | 354 | 0.0 | 2.6 | 0.00 | 0.07 | 0.01 | 80 | 1012.9 |
| 20260510211504 | 65 | 70 | 0.9 | 4.3 | 0.00 | 0.07 | 0.01 | 79 | 1012.9 |
| 20260510211002 | 65 | 126 | 1.7 | 4.3 | 0.00 | 0.07 | 0.01 | 79 | 1012.7 |
| 20260510210504 | 65 | 104 | 0.9 | 7.0 | 0.00 | 0.07 | 0.01 | 78 | 1012.7 |
| 20260510210002 | 65 | 133 | 2.6 | 7.8 | 0.00 | 0.07 | 0.01 | 78 | 1012.6 |
| 20260510205502 | 66 | 165 | 4.3 | 7.8 | 0.00 | 0.07 | 0.01 | 77 | 1012.6 |
| 20260510205002 | 66 | 162 | 3.5 | 8.7 | 0.00 | 0.07 | 0.01 | 76 | 1012.6 |
| 20260510204502 | 66 | 149 | 3.5 | 8.7 | 0.00 | 0.07 | 0.01 | 75 | 1012.5 |
| 20260510204100 | 67 | 181 | 3.5 | 8.7 | 0.00 | 0.07 | 0.01 | 75 | 1012.5 |
| 20260510203601 | 67 | 189 | 3.5 | 9.6 | 0.00 | 0.07 | 0.01 | 74 | 1012.4 |
| 20260510203101 | 69 | 172 | 5.2 | 9.6 | 0.00 | 0.07 | 0.01 | 73 | 1012.3 |
| 20260510202600 | 70 | 166 | 3.5 | 7.8 | 0.00 | 0.07 | 0.01 | 73 | 1012.2 |
| 20260510202100 | 71 | 153 | 4.3 | 7.8 | 0.00 | 0.07 | 0.01 | 72 | 1012.2 |
| 20260510201602 | 72 | 203 | 1.7 | 4.3 | 0.00 | 0.07 | 0.01 | 71 | 1012.2 |
| 20260510201102 | 72 | 160 | 1.7 | 5.2 | 0.00 | 0.07 | 0.01 | 69 | 1012.2 |
| 20260510200600 | 72 | 172 | 1.7 | 7.0 | 0.00 | 0.07 | 0.01 | 69 | 1012.2 |
| 20260510200100 | 72 | 160 | 2.6 | 7.0 | 0.00 | 0.07 | 0.01 | 69 | 1012.2 |
| 20260510195601 | 72 | 204 | 2.6 | 4.3 | 0.00 | 0.07 | 0.01 | 69 | 1012.3 |
| 20260510195103 | 72 | 218 | 0.9 | 7.8 | 0.00 | 0.07 | 0.01 | 69 | 1012.4 |
| 20260510194558 | 72 | 244 | 0.9 | 7.8 | 0.00 | 0.07 | 0.01 | 67 | 1012.4 |
| 20260510194059 | 74 | 128 | 2.6 | 7.0 | 0.00 | 0.07 | 0.01 | 66 | 1012.4 |
| 20260510193556 | 75 | 149 | 2.6 | 7.8 | 0.00 | 0.07 | 0.01 | 66 | 1012.4 |
| 20260510193105 | 76 | 244 | 3.5 | 9.6 | 0.00 | 0.07 | 0.01 | 57 | 1012.2 |
| 20260510192554 | 76 | 235 | 3.5 | 9.6 | 0.00 | 0.07 | 0.01 | 58 | 1012.3 |
| 20260510192052 | 75 | 264 | 5.2 | 9.6 | 0.00 | 0.07 | 0.01 | 60 | 1012.4 |
| 20260510191558 | 74 | 310 | 2.6 | 9.6 | 0.00 | 0.07 | 0.01 | 62 | 1012.4 |
| 20260510191052 | 74 | 297 | 1.7 | 7.0 | 0.00 | 0.07 | 0.01 | 64 | 1012.4 |
| 20260510190552 | 73 | 216 | 2.6 | 11.3 | 0.00 | 0.07 | 0.01 | 65 | 1012.5 |
| 20260510190053 | 73 | 239 | 7.0 | 13.0 | 0.00 | 0.07 | 0.01 | 64 | 1012.7 |
| 20260510185549 | 73 | 233 | 8.7 | 13.0 | 0.00 | 0.11 | 0.01 | 63 | 1012.8 |
| 20260510185049 | 73 | 275 | 2.6 | 7.8 | 0.00 | 0.11 | 0.01 | 64 | 1012.6 |
| 20260510184549 | 73 | 249 | 2.6 | 9.6 | 0.00 | 0.11 | 0.01 | 62 | 1012.6 |
| 20260510184051 | 73 | 285 | 4.3 | 9.6 | 0.00 | 0.11 | 0.01 | 62 | 1012.6 |
| 20260510183547 | 73 | 359 | 3.5 | 10.4 | 0.00 | 0.11 | 0.01 | 62 | 1012.6 |
| 20260510183051 | 73 | 354 | 4.3 | 10.4 | 0.00 | 0.11 | 0.01 | 61 | 1012.8 |
| 20260510182550 | 73 | 293 | 3.5 | 8.7 | 0.00 | 0.11 | 0.01 | 63 | 1012.8 |
| 20260510182050 | 73 | 333 | 2.6 | 9.6 | 0.00 | 0.11 | 0.01 | 61 | 1012.8 |
| 20260510181545 | 74 | 244 | 4.3 | 9.6 | 0.00 | 0.11 | 0.01 | 64 | 1012.7 |
| 20260510181043 | 73 | 235 | 2.6 | 7.0 | 0.00 | 0.11 | 0.01 | 64 | 1012.9 |
| 20260510180542 | 73 | 213 | 3.5 | 8.7 | 0.00 | 0.11 | 0.01 | 65 | 1012.8 |
| 20260510180049 | 73 | 217 | 2.6 | 8.7 | 0.00 | 0.11 | 0.01 | 64 | 1012.8 |
| 20260510175540 | 73 | 359 | 4.3 | 7.8 | 0.00 | 0.11 | 0.01 | 66 | 1012.8 |
| 20260510175040 | 73 | 359 | 5.2 | 8.7 | 0.00 | 0.11 | 0.01 | 65 | 1012.8 |
| 20260510174541 | 73 | 256 | 2.6 | 8.7 | 0.00 | 0.11 | 0.01 | 66 | 1012.8 |
| 20260510174038 | 73 | 167 | 3.5 | 8.7 | 0.00 | 0.11 | 0.01 | 66 | 1012.8 |
| 20260510173537 | 72 | 179 | 3.5 | 7.0 | 0.00 | 0.11 | 0.01 | 67 | 1012.8 |
| 20260510173036 | 72 | 359 | 0.9 | 7.8 | 0.00 | 0.11 | 0.01 | 65 | 1012.7 |
| 20260510172535 | 71 | 234 | 4.3 | 7.8 | 0.00 | 0.11 | 0.01 | 67 | 1012.8 |
| 20260510172034 | 71 | 227 | 1.7 | 5.2 | 0.00 | 0.11 | 0.01 | 70 | 1012.6 |
| 20260510171532 | 70 | 16 | 0.0 | 5.2 | 0.00 | 0.11 | 0.01 | 72 | 1012.8 |
| 20260510171030 | 70 | 200 | 1.7 | 7.8 | 0.00 | 0.11 | 0.01 | 73 | 1012.8 |
| 20260510170529 | 69 | 359 | 4.3 | 7.8 | 0.00 | 0.11 | 0.01 | 73 | 1012.9 |
| 20260510170034 | 68 | 191 | 2.6 | 7.0 | 0.00 | 0.11 | 0.01 | 74 | 1013.0 |
| 20260510165528 | 68 | 359 | 0.9 | 5.2 | 0.00 | 0.11 | 0.01 | 74 | 1013.0 |
| 20260510165029 | 68 | 188 | 1.7 | 5.2 | 0.00 | 0.11 | 0.01 | 76 | 1013.0 |
| 20260510164543 | 67 | 234 | 1.7 | 5.2 | 0.00 | 0.11 | 0.01 | 77 | 1013.0 |
| 20260510164024 | 66 | 215 | 2.6 | 5.2 | 0.00 | 0.11 | 0.01 | 79 | 1013.1 |
| 20260510163524 | 66 | 152 | 1.7 | 7.0 | 0.00 | 0.11 | 0.01 | 78 | 1013.1 |
| 20260510163021 | 65 | 245 | 1.7 | 7.0 | 0.00 | 0.11 | 0.01 | 80 | 1013.2 |
| 20260510162519 | 64 | 359 | 0.9 | 4.3 | 0.00 | 0.11 | 0.01 | 81 | 1013.1 |
| 20260510162019 | 64 | 359 | 0.9 | 4.3 | 0.00 | 0.11 | 0.01 | 82 | 1013.1 |
| 20260510161519 | 64 | 54 | 1.7 | 7.8 | 0.00 | 0.11 | 0.01 | 81 | 1013.3 |
| 20260510161017 | 64 | 267 | 5.2 | 7.8 | 0.00 | 0.11 | 0.01 | 82 | 1013.3 |
| 20260510160517 | 63 | 359 | 1.7 | 6.1 | 0.00 | 0.11 | 0.01 | 83 | 1013.4 |
| 20260510160014 | 63 | 253 | 2.6 | 6.1 | 0.00 | 0.11 | 0.01 | 84 | 1013.4 |
| 20260510155514 | 62 | 181 | 1.7 | 5.2 | 0.00 | 0.11 | 0.01 | 85 | 1013.4 |
| 20260510155013 | 62 | 213 | 0.9 | 5.2 | 0.00 | 0.11 | 0.01 | 88 | 1013.4 |
| 20260510154512 | 61 | 256 | 0.0 | 3.5 | 0.00 | 0.11 | 0.01 | 89 | 1013.4 |
| 20260510154010 | 60 | 271 | 0.9 | 4.3 | 0.00 | 0.11 | 0.01 | 89 | 1013.5 |
| 20260510153509 | 59 | 8 | 0.9 | 3.5 | 0.00 | 0.11 | 0.01 | 90 | 1013.6 |
| 20260510153011 | 59 | 237 | 0.9 | 4.3 | 0.00 | 0.11 | 0.01 | 91 | 1013.6 |
| 20260510152508 | 59 | 359 | 0.9 | 4.3 | 0.00 | 0.11 | 0.01 | 92 | 1013.8 |
| 20260510152005 | 58 | 206 | 1.7 | 3.5 | 0.00 | 0.11 | 0.01 | 93 | 1013.6 |
| 20260510151505 | 58 | 359 | 0.9 | 3.5 | 0.00 | 0.11 | 0.01 | 94 | 1013.4 |
| 20260510151003 | 57 | 349 | 0.9 | 4.3 | 0.00 | 0.11 | 0.01 | 94 | 1013.5 |
| 20260510150502 | 57 | 359 | 1.7 | 4.3 | 0.00 | 0.11 | 0.01 | 94 | 1013.5 |
| 20260510150002 | 57 | 239 | 1.7 | 4.3 | 0.00 | 0.11 | 0.01 | 94 | 1013.6 |
| 20260510145505 | 57 | 359 | 2.6 | 4.3 | 0.00 | 0.11 | 0.01 | 95 | 1013.6 |
| 20260510145002 | 57 | 228 | 1.7 | 5.2 | 0.00 | 0.11 | 0.01 | 95 | 1013.6 |
| 20260510144600 | 56 | 359 | 2.6 | 5.2 | 0.00 | 0.11 | 0.01 | 96 | 1013.5 |
| 20260510144059 | 56 | 122 | 0.9 | 5.2 | 0.00 | 0.11 | 0.01 | 96 | 1013.5 |
| 20260510143557 | 56 | 359 | 2.6 | 5.2 | 0.00 | 0.11 | 0.01 | 96 | 1013.4 |
| 20260510143058 | 56 | 137 | 1.7 | 4.3 | 0.00 | 0.11 | 0.01 | 96 | 1013.4 |
| 20260510142557 | 56 | 359 | 1.7 | 4.3 | 0.00 | 0.11 | 0.01 | 96 | 1013.4 |
| 20260510142056 | 55 | 243 | 1.7 | 3.5 | 0.00 | 0.11 | 0.01 | 96 | 1013.5 |
| 20260510141555 | 55 | 212 | 0.9 | 5.2 | 0.00 | 0.11 | 0.01 | 96 | 1013.5 |
| 20260510141055 | 55 | 160 | 2.6 | 5.2 | 0.00 | 0.11 | 0.01 | 96 | 1013.6 |
| 20260510140559 | 55 | 359 | 1.7 | 4.3 | 0.00 | 0.11 | 0.01 | 96 | 1013.6 |
| 20260510140055 | 55 | 157 | 1.7 | 6.1 | 0.00 | 0.11 | 0.01 | 96 | 1013.5 |
| 20260510135554 | 54 | 178 | 1.7 | 4.3 | 0.00 | 0.11 | 0.01 | 96 | 1013.5 |
| 20260510135054 | 55 | 135 | 1.7 | 4.3 | 0.00 | 0.11 | 0.01 | 96 | 1013.6 |
| 20260510134554 | 55 | 179 | 0.9 | 5.2 | 0.00 | 0.11 | 0.01 | 96 | 1013.5 |
| 20260510134057 | 55 | 359 | 1.7 | 4.3 | 0.00 | 0.11 | 0.01 | 96 | 1013.4 |
| 20260510133555 | 54 | 172 | 2.6 | 4.3 | 0.00 | 0.11 | 0.01 | 97 | 1013.4 |
| 20260510133057 | 54 | 359 | 1.7 | 4.3 | 0.00 | 0.11 | 0.01 | 96 | 1013.3 |
| 20260510132551 | 54 | 359 | 2.6 | 5.2 | 0.00 | 0.11 | 0.01 | 96 | 1013.3 |
| 20260510132053 | 54 | 95 | 0.9 | 2.6 | 0.00 | 0.11 | 0.01 | 96 | 1013.4 |
| 20260510131555 | 54 | 162 | 0.9 | 3.5 | 0.00 | 0.11 | 0.01 | 96 | 1013.3 |
| 20260510131049 | 54 | 154 | 1.7 | 3.5 | 0.00 | 0.11 | 0.01 | 96 | 1013.2 |
| 20260510130552 | 54 | 132 | 1.7 | 2.6 | 0.00 | 0.11 | 0.01 | 96 | 1013.2 |
| 20260510130048 | 54 | 359 | 0.9 | 3.5 | 0.00 | 0.11 | 0.01 | 96 | 1013.0 |
| 20260510125546 | 54 | 359 | 0.9 | 4.3 | 0.00 | 0.11 | 0.01 | 96 | 1012.8 |
| 20260510125047 | 54 | 359 | 1.7 | 5.2 | 0.00 | 0.11 | 0.01 | 96 | 1012.8 |
| 20260510124607 | 54 | 359 | 0.9 | 3.5 | 0.00 | 0.11 | 0.01 | 96 | 1012.7 |
| 20260510124046 | 54 | 201 | 1.7 | 3.5 | 0.00 | 0.11 | 0.01 | 97 | 1012.7 |
| 20260510123543 | 54 | 359 | 0.9 | 3.5 | 0.00 | 0.11 | 0.01 | 96 | 1012.6 |
| 20260510123043 | 54 | 149 | 1.7 | 3.5 | 0.00 | 0.11 | 0.01 | 96 | 1012.7 |
| 20260510122548 | 54 | 133 | 0.9 | 3.5 | 0.00 | 0.11 | 0.01 | 96 | 1012.7 |
| 20260510122043 | 54 | 359 | 0.9 | 3.5 | 0.00 | 0.11 | 0.01 | 96 | 1012.7 |
| 20260510121544 | 54 | 359 | 0.9 | 3.5 | 0.00 | 0.11 | 0.01 | 96 | 1012.6 |
| 20260510121043 | 54 | 223 | 0.9 | 3.5 | 0.00 | 0.11 | 0.01 | 96 | 1012.7 |
| 20260510120543 | 54 | 245 | 0.9 | 3.5 | 0.00 | 0.11 | 0.01 | 96 | 1012.6 |
| 20260510120042 | 54 | 226 | 0.9 | 2.6 | 0.00 | 0.11 | 0.01 | 96 | 1012.6 |
| 20260510115541 | 53 | 235 | 0.9 | 2.6 | 0.00 | 0.11 | 0.01 | 96 | 1012.4 |
| 20260510115041 | 53 | 146 | 0.9 | 2.6 | 0.00 | 0.11 | 0.01 | 96 | 1012.4 |
| 20260510114543 | 53 | 359 | 0.0 | 1.7 | 0.00 | 0.11 | 0.01 | 96 | 1012.3 |
| 20260510114040 | 53 | 168 | 0.0 | 2.6 | 0.00 | 0.11 | 0.01 | 96 | 1012.3 |
| 20260510113542 | 53 | 359 | 0.9 | 2.6 | 0.00 | 0.11 | 0.01 | 96 | 1012.4 |
| 20260510113039 | 53 | 160 | 0.0 | 4.3 | 0.00 | 0.11 | 0.01 | 96 | 1012.3 |
| 20260510112538 | 53 | 172 | 1.7 | 4.3 | 0.00 | 0.11 | 0.01 | 96 | 1012.2 |
| 20260510112039 | 53 | 133 | 0.9 | 4.3 | 0.00 | 0.11 | 0.01 | 96 | 1012.2 |
| 20260510111559 | 53 | 151 | 1.7 | 4.3 | 0.00 | 0.11 | 0.01 | 96 | 1012.3 |
| 20260510111038 | 53 | 359 | 1.7 | 3.5 | 0.00 | 0.11 | 0.01 | 97 | 1012.2 |
| 20260510110538 | 53 | 152 | 0.9 | 3.5 | 0.00 | 0.11 | 0.01 | 96 | 1012.1 |
| 20260510110037 | 53 | 71 | 0.0 | 3.5 | 0.00 | 0.11 | 0.01 | 96 | 1011.9 |
| 20260510105537 | 53 | 75 | 1.7 | 3.5 | 0.00 | 0.11 | 0.01 | 96 | 1011.8 |
| 20260510105037 | 53 | 79 | 0.0 | 2.6 | 0.00 | 0.11 | 0.01 | 96 | 1011.7 |
| 20260510104542 | 53 | 83 | 0.9 | 2.6 | 0.00 | 0.11 | 0.01 | 96 | 1011.7 |
| 20260510104035 | 53 | 91 | 0.0 | 2.6 | 0.00 | 0.11 | 0.01 | 96 | 1011.9 |
| 20260510103535 | 53 | 113 | 0.9 | 2.6 | 0.00 | 0.11 | 0.01 | 96 | 1011.8 |
| 20260510103037 | 53 | 25 | 0.9 | 3.5 | 0.00 | 0.11 | 0.01 | 96 | 1011.8 |
| 20260510102535 | 53 | 70 | 1.7 | 3.5 | 0.00 | 0.11 | 0.01 | 96 | 1011.9 |
| 20260510102034 | 53 | 4 | 0.9 | 3.5 | 0.00 | 0.11 | 0.01 | 96 | 1011.9 |
| 20260510101538 | 52 | 48 | 0.9 | 3.5 | 0.00 | 0.11 | 0.01 | 96 | 1011.8 |
| 20260510101038 | 52 | 21 | 0.9 | 3.5 | 0.00 | 0.11 | 0.01 | 96 | 1011.8 |
| 20260510100534 | 52 | 54 | 0.9 | 2.6 | 0.00 | 0.11 | 0.01 | 96 | 1011.7 |
| 20260510100035 | 52 | 49 | 0.9 | 3.5 | 0.00 | 0.11 | 0.01 | 96 | 1011.8 |
| 20260510095534 | 52 | 15 | 0.9 | 3.5 | 0.00 | 0.11 | 0.01 | 96 | 1011.8 |
| 20260510095036 | 52 | 39 | 0.9 | 4.3 | 0.00 | 0.11 | 0.01 | 96 | 1011.8 |
| 20260510094533 | 52 | 23 | 0.9 | 5.2 | 0.00 | 0.11 | 0.01 | 96 | 1011.8 |
| 20260510094032 | 52 | 25 | 2.6 | 5.2 | 0.00 | 0.11 | 0.01 | 96 | 1011.8 |
| 20260510093532 | 52 | 339 | 1.7 | 3.5 | 0.00 | 0.11 | 0.01 | 96 | 1011.9 |
| 20260510093033 | 53 | 10 | 1.7 | 5.2 | 0.00 | 0.11 | 0.01 | 96 | 1012.0 |
| 20260510092533 | 53 | 21 | 3.5 | 5.2 | 0.00 | 0.11 | 0.01 | 96 | 1012.0 |
| 20260510092032 | 52 | 54 | 1.7 | 7.0 | 0.00 | 0.11 | 0.01 | 96 | 1012.0 |
| 20260510091549 | 53 | 359 | 2.6 | 7.0 | 0.00 | 0.11 | 0.01 | 96 | 1012.1 |
| 20260510091031 | 53 | 4 | 3.5 | 7.0 | 0.00 | 0.11 | 0.01 | 96 | 1012.1 |
| 20260510090533 | 53 | 9 | 2.6 | 5.2 | 0.00 | 0.11 | 0.01 | 96 | 1012.2 |
| 20260510090033 | 53 | 33 | 2.6 | 5.2 | 0.00 | 0.11 | 0.01 | 96 | 1012.2 |
| 20260510085530 | 52 | 27 | 1.7 | 4.3 | 0.00 | 0.11 | 0.01 | 96 | 1012.2 |
| 20260510085029 | 52 | 67 | 1.7 | 7.8 | 0.01 | 0.11 | 0.01 | 96 | 1011.8 |
| 20260510084529 | 52 | 31 | 3.5 | 7.8 | 0.01 | 0.11 | 0.01 | 96 | 1012.0 |
| 20260510084028 | 52 | 29 | 1.7 | 4.3 | 0.01 | 0.11 | 0.01 | 96 | 1011.7 |
| 20260510083526 | 52 | 94 | 0.9 | 3.5 | 0.01 | 0.11 | 0.01 | 96 | 1011.4 |
| 20260510083025 | 52 | 72 | 0.9 | 2.6 | 0.01 | 0.11 | 0.01 | 96 | 1011.4 |
| 20260510082525 | 52 | 76 | 0.0 | 2.6 | 0.01 | 0.11 | 0.01 | 96 | 1011.4 |
| 20260510082025 | 52 | 86 | 0.9 | 5.2 | 0.01 | 0.11 | 0.01 | 96 | 1011.4 |
| 20260510081534 | 51 | 359 | 1.7 | 5.2 | 0.01 | 0.11 | 0.01 | 96 | 1011.4 |
| 20260510081023 | 51 | 8 | 0.0 | 0.0 | 0.01 | 0.11 | 0.01 | 96 | 1011.3 |
| 20260510080522 | 51 | 8 | 0.0 | 0.0 | 0.01 | 0.11 | 0.01 | 96 | 1011.3 |
| 20260510080027 | 51 | 4 | 0.0 | 0.0 | 0.01 | 0.11 | 0.01 | 96 | 1011.2 |
| 20260510075524 | 51 | 8 | 0.0 | 0.0 | 0.01 | 0.11 | 0.01 | 96 | 1011.2 |
| 20260510075022 | 51 | 8 | 0.0 | 0.0 | 0.00 | 0.10 | 0.00 | 96 | 1011.2 |
| 20260510074522 | 50 | 8 | 0.0 | 0.0 | 0.00 | 0.10 | 0.00 | 96 | 1011.1 |
| 20260510074023 | 50 | 8 | 0.0 | 0.0 | 0.00 | 0.10 | 0.00 | 96 | 1011.2 |
| 20260510073528 | 50 | 8 | 0.0 | 0.0 | 0.00 | 0.10 | 0.00 | 96 | 1011.0 |
| 20260510073032 | 50 | 8 | 0.0 | 1.7 | 0.00 | 0.10 | 0.00 | 96 | 1011.0 |
| 20260510072520 | 50 | 8 | 0.0 | 2.6 | 0.00 | 0.10 | 0.00 | 96 | 1011.0 |
| 20260510072020 | 50 | 23 | 0.9 | 2.6 | 0.00 | 0.10 | 0.00 | 96 | 1011.1 |
| 20260510071529 | 50 | 359 | 0.9 | 2.6 | 0.00 | 0.10 | 0.00 | 95 | 1011.2 |
| 20260510071019 | 49 | 20 | 0.9 | 2.6 | 0.00 | 0.10 | 0.00 | 95 | 1011.2 |
| 20260510070519 | 49 | 48 | 1.7 | 3.5 | 0.00 | 0.10 | 0.00 | 95 | 1011.0 |
| 20260510070024 | 49 | 14 | 0.9 | 3.5 | 0.00 | 0.10 | 0.00 | 95 | 1011.1 |
| 20260510065519 | 49 | 28 | 1.7 | 2.6 | 0.00 | 0.10 | 0.00 | 95 | 1011.0 |
| 20260510065019 | 49 | 27 | 0.9 | 2.6 | 0.00 | 0.10 | 0.00 | 95 | 1011.0 |
| 20260510064545 | 49 | 4 | 0.9 | 2.6 | 0.00 | 0.10 | 0.00 | 95 | 1010.9 |
| 20260510064016 | 49 | 359 | 0.0 | 0.0 | 0.00 | 0.10 | 0.00 | 95 | 1010.9 |
| 20260510063516 | 49 | 165 | 0.0 | 0.0 | 0.00 | 0.10 | 0.00 | 95 | 1010.9 |
| 20260510063019 | 49 | 164 | 0.0 | 0.0 | 0.00 | 0.10 | 0.00 | 95 | 1010.7 |
| 20260510062516 | 49 | 162 | 0.0 | 0.0 | 0.00 | 0.10 | 0.00 | 95 | 1010.9 |
| 20260510062015 | 49 | 166 | 0.0 | 0.0 | 0.00 | 0.10 | 0.00 | 95 | 1010.8 |
| 20260510061529 | 49 | 165 | 0.0 | 0.0 | 0.00 | 0.10 | 0.00 | 95 | 1010.9 |
| 20260510061015 | 49 | 168 | 0.0 | 0.0 | 0.00 | 0.10 | 0.00 | 94 | 1010.7 |
| 20260510060514 | 49 | 168 | 0.0 | 0.0 | 0.00 | 0.10 | 0.00 | 94 | 1010.9 |
| 20260510060026 | 49 | 164 | 0.0 | 0.0 | 0.00 | 0.10 | 0.00 | 94 | 1010.9 |
| 20260510055513 | 49 | 164 | 0.0 | 0.0 | 0.00 | 0.10 | 0.00 | 94 | 1010.8 |
| 20260510055012 | 49 | 168 | 0.0 | 0.0 | 0.00 | 0.10 | 0.00 | 94 | 1010.9 |
| 20260510054512 | 50 | 359 | 0.0 | 0.0 | 0.00 | 0.10 | 0.00 | 94 | 1011.0 |
| 20260510054010 | 50 | 167 | 0.0 | 0.0 | 0.00 | 0.10 | 0.00 | 94 | 1011.0 |
| 20260510053513 | 50 | 164 | 0.0 | 0.0 | 0.00 | 0.10 | 0.00 | 94 | 1011.1 |
| 20260510053010 | 50 | 168 | 0.0 | 0.0 | 0.00 | 0.10 | 0.00 | 94 | 1011.0 |
| 20260510052509 | 50 | 162 | 0.0 | 0.0 | 0.00 | 0.10 | 0.00 | 94 | 1011.0 |
| 20260510052010 | 50 | 163 | 0.0 | 0.0 | 0.00 | 0.10 | 0.00 | 94 | 1011.0 |
| 20260510051509 | 50 | 359 | 0.0 | 0.0 | 0.00 | 0.10 | 0.00 | 94 | 1011.1 |
| 20260510051007 | 50 | 164 | 0.0 | 0.0 | 0.00 | 0.10 | 0.00 | 94 | 1011.0 |
| 20260510050507 | 50 | 359 | 0.0 | 0.0 | 0.00 | 0.10 | 0.00 | 94 | 1011.1 |
| 20260510050007 | 50 | 359 | 0.0 | 0.0 | 0.00 | 0.10 | 0.00 | 94 | 1011.2 |
| 20260510045509 | 50 | 359 | 0.0 | 0.0 | 0.00 | 0.10 | 0.00 | 94 | 1011.2 |
| 20260510045010 | 50 | 359 | 0.0 | 0.0 | 0.00 | 0.10 | 0.00 | 94 | 1011.1 |
| 20260510044508 | 50 | 168 | 0.0 | 0.0 | 0.00 | 0.10 | 0.00 | 93 | 1011.3 |
| 20260510044010 | 50 | 165 | 0.0 | 0.0 | 0.00 | 0.10 | 0.00 | 94 | 1011.3 |
| 20260510043504 | 50 | 359 | 0.0 | 0.0 | 0.00 | 0.10 | 0.00 | 94 | 1011.3 |
| 20260510043005 | 51 | 163 | 0.0 | 0.0 | 0.00 | 0.10 | 0.00 | 94 | 1011.3 |
| 20260510042504 | 50 | 164 | 0.0 | 0.0 | 0.00 | 0.10 | 0.00 | 94 | 1011.4 |
| 20260510042007 | 51 | 164 | 0.0 | 0.0 | 0.00 | 0.10 | 0.00 | 94 | 1011.4 |
| 20260510041503 | 50 | 166 | 0.0 | 0.0 | 0.00 | 0.10 | 0.00 | 93 | 1011.3 |
| 20260510041003 | 51 | 166 | 0.0 | 0.0 | 0.00 | 0.10 | 0.00 | 93 | 1011.4 |
| 20260510040502 | 51 | 162 | 0.0 | 0.0 | 0.00 | 0.10 | 0.00 | 93 | 1011.3 |
| 20260510040003 | 51 | 165 | 0.0 | 0.0 | 0.00 | 0.10 | 0.00 | 93 | 1011.1 |
| 20260510035600 | 51 | 359 | 0.0 | 0.0 | 0.00 | 0.10 | 0.10 | 93 | 1011.0 |
| 20260510035101 | 51 | 163 | 0.0 | 0.0 | 0.00 | 0.10 | 0.10 | 93 | 1011.0 |
| 20260510034605 | 51 | 359 | 0.0 | 0.0 | 0.00 | 0.10 | 0.10 | 93 | 1011.0 |
| 20260510034059 | 51 | 166 | 0.0 | 0.0 | 0.00 | 0.10 | 0.10 | 93 | 1011.0 |
| 20260510033600 | 51 | 359 | 0.0 | 0.0 | 0.00 | 0.10 | 0.10 | 93 | 1011.0 |
| 20260510033059 | 52 | 359 | 0.0 | 0.0 | 0.00 | 0.10 | 0.10 | 93 | 1011.0 |
| 20260510032557 | 52 | 359 | 0.0 | 0.0 | 0.00 | 0.10 | 0.10 | 93 | 1010.9 |
| 20260510032059 | 52 | 164 | 0.0 | 0.0 | 0.00 | 0.10 | 0.10 | 93 | 1011.0 |
| 20260510031608 | 52 | 163 | 0.0 | 0.0 | 0.00 | 0.10 | 0.10 | 93 | 1011.1 |
| 20260510031056 | 52 | 359 | 0.0 | 0.0 | 0.00 | 0.10 | 0.10 | 93 | 1011.0 |
| 20260510030556 | 52 | 168 | 0.0 | 0.0 | 0.00 | 0.10 | 0.10 | 93 | 1011.1 |
| 20260510030104 | 52 | 359 | 0.0 | 0.0 | 0.00 | 0.10 | 0.10 | 93 | 1010.9 |
| 20260510025556 | 52 | 168 | 0.0 | 0.0 | 0.00 | 0.10 | 0.10 | 93 | 1010.9 |
| 20260510025056 | 52 | 164 | 0.0 | 0.0 | 0.00 | 0.10 | 0.10 | 93 | 1010.9 |
| 20260510024557 | 52 | 165 | 0.0 | 0.0 | 0.00 | 0.10 | 0.10 | 93 | 1011.0 |
| 20260510024055 | 52 | 166 | 0.0 | 0.0 | 0.00 | 0.10 | 0.10 | 92 | 1010.8 |
| 20260510023558 | 52 | 168 | 0.0 | 0.0 | 0.00 | 0.10 | 0.10 | 92 | 1010.8 |
| 20260510023054 | 52 | 164 | 0.0 | 0.0 | 0.00 | 0.10 | 0.10 | 92 | 1010.9 |
| 20260510022557 | 52 | 168 | 0.0 | 0.0 | 0.00 | 0.10 | 0.10 | 92 | 1010.9 |
| 20260510022056 | 52 | 168 | 0.0 | 0.0 | 0.00 | 0.10 | 0.10 | 92 | 1010.9 |
| 20260510021552 | 52 | 166 | 0.0 | 0.0 | 0.00 | 0.10 | 0.10 | 92 | 1010.8 |
| 20260510021052 | 52 | 165 | 0.0 | 0.0 | 0.00 | 0.10 | 0.10 | 92 | 1011.0 |
| 20260510020552 | 52 | 165 | 0.0 | 0.0 | 0.00 | 0.10 | 0.10 | 92 | 1011.0 |
| 20260510020052 | 52 | 128 | 0.0 | 0.0 | 0.00 | 0.10 | 0.10 | 92 | 1010.9 |
| 20260510015552 | 53 | 131 | 0.0 | 0.0 | 0.00 | 0.10 | 0.10 | 91 | 1010.8 |
| 20260510015052 | 53 | 359 | 0.0 | 0.0 | 0.00 | 0.10 | 0.10 | 91 | 1010.9 |
| 20260510014551 | 53 | 127 | 0.0 | 0.0 | 0.00 | 0.10 | 0.10 | 91 | 1010.9 |
| 20260510014051 | 53 | 128 | 0.0 | 0.0 | 0.00 | 0.10 | 0.10 | 91 | 1010.9 |
| 20260510013550 | 53 | 359 | 0.0 | 0.0 | 0.00 | 0.10 | 0.10 | 91 | 1010.8 |
| 20260510013053 | 53 | 129 | 0.0 | 0.0 | 0.00 | 0.10 | 0.10 | 91 | 1010.9 |
| 20260510012548 | 53 | 131 | 0.0 | 0.0 | 0.00 | 0.10 | 0.10 | 91 | 1010.8 |
| 20260510012048 | 53 | 129 | 0.0 | 0.0 | 0.00 | 0.10 | 0.10 | 91 | 1010.8 |
| 20260510011548 | 54 | 131 | 0.0 | 0.0 | 0.00 | 0.10 | 0.10 | 90 | 1010.7 |
| 20260510011048 | 54 | 131 | 0.0 | 0.0 | 0.00 | 0.10 | 0.10 | 90 | 1010.8 |
| 20260510010546 | 54 | 128 | 0.0 | 0.0 | 0.00 | 0.10 | 0.10 | 90 | 1010.7 |
| 20260510010046 | 54 | 131 | 0.0 | 0.0 | 0.00 | 0.10 | 0.10 | 90 | 1010.5 |
| 20260510005546 | 54 | 131 | 0.0 | 0.0 | 0.00 | 0.10 | 0.10 | 90 | 1010.6 |
| 20260510005046 | 54 | 128 | 0.0 | 0.0 | 0.00 | 0.10 | 0.10 | 90 | 1010.4 |
| 20260510004546 | 55 | 128 | 0.0 | 0.0 | 0.00 | 0.10 | 0.10 | 90 | 1010.4 |
| 20260510004046 | 55 | 131 | 0.0 | 0.0 | 0.00 | 0.10 | 0.10 | 90 | 1010.3 |
| 20260510003554 | 55 | 129 | 0.0 | 0.0 | 0.00 | 0.10 | 0.10 | 89 | 1010.4 |
| 20260510003054 | 55 | 359 | 0.0 | 0.0 | 0.00 | 0.10 | 0.10 | 89 | 1010.4 |
| 20260510002546 | 55 | 128 | 0.0 | 0.0 | 0.00 | 0.10 | 0.10 | 89 | 1010.4 |
| 20260510002044 | 55 | 129 | 0.0 | 0.0 | 0.00 | 0.10 | 0.10 | 88 | 1010.5 |
| 20260510001546 | 55 | 129 | 0.0 | 0.0 | 0.00 | 0.10 | 0.10 | 88 | 1010.4 |
| 20260510001048 | 55 | 129 | 0.0 | 0.0 | 0.00 | 0.10 | 0.10 | 88 | 1010.4 |
| 20260510000544 | 56 | 129 | 0.0 | 0.0 | 0.00 | 0.10 | 0.10 | 88 | 1010.2 |
| 20260510000044 | 56 | 129 | 0.0 | 0.0 | 0.00 | 0.10 | 0.10 | 88 | 1010.1 |
| 20260509235544 | 56 | 128 | 0.0 | 0.0 | 0.00 | 0.10 | 0.10 | 88 | 1010.2 |
| 20260509235043 | 56 | 128 | 0.0 | 1.7 | 0.00 | 0.10 | 0.10 | 88 | 1010.2 |
| 20260509234559 | 56 | 129 | 0.0 | 1.7 | 0.00 | 0.10 | 0.10 | 87 | 1010.2 |
| 20260509234044 | 56 | 110 | 0.0 | 0.0 | 0.00 | 0.10 | 0.10 | 87 | 1010.1 |
| 20260509233542 | 56 | 111 | 0.0 | 1.7 | 0.00 | 0.10 | 0.10 | 87 | 1009.9 |
| 20260509233050 | 56 | 112 | 0.9 | 2.6 | 0.00 | 0.10 | 0.10 | 87 | 1009.7 |
| 20260509232544 | 56 | 106 | 0.0 | 3.5 | 0.00 | 0.10 | 0.10 | 87 | 1009.8 |
| 20260509232041 | 56 | 359 | 0.9 | 2.6 | 0.00 | 0.10 | 0.10 | 88 | 1009.8 |
| 20260509231601 | 56 | 92 | 0.9 | 2.6 | 0.00 | 0.10 | 0.10 | 88 | 1009.9 |
| 20260509231045 | 56 | 86 | 0.9 | 2.6 | 0.00 | 0.10 | 0.10 | 88 | 1009.9 |
| 20260509230541 | 56 | 77 | 0.9 | 2.6 | 0.02 | 0.10 | 0.10 | 88 | 1010.0 |
| 20260509230041 | 56 | 123 | 0.0 | 2.6 | 0.03 | 0.10 | 0.10 | 88 | 1010.1 |
| 20260509225540 | 56 | 123 | 0.9 | 3.5 | 0.03 | 0.10 | 0.10 | 88 | 1010.1 |
| 20260509225040 | 56 | 116 | 0.9 | 3.5 | 0.04 | 0.10 | 0.10 | 87 | 1010.1 |